| time (UTC) | temp F | wind direction | speed knots | gust knots | rain 1hr in | rain 24hr in | rain mn in | humidity % | barometer mb |
| 20260904163015 | 90 | 129 | 1.7 | 5.2 | 0.00 | 0.00 | 0.00 | 12 | 1008.0 |
| 20260904161510 | 89 | 96 | 0.9 | 3.5 | 0.00 | 0.00 | 0.00 | 13 | 1007.9 |
| 20260904160009 | 88 | 136 | 1.7 | 5.2 | 0.00 | 0.00 | 0.00 | 14 | 1008.0 |
| 20260904154504 | 87 | 119 | 0.0 | 3.5 | 0.00 | 0.00 | 0.00 | 14 | 1007.8 |
| 20260904153107 | 86 | 64 | 0.9 | 2.6 | 0.00 | 0.00 | 0.00 | 15 | 1007.9 |
| 20260904151556 | 84 | 59 | 0.9 | 3.5 | 0.00 | 0.00 | 0.00 | 15 | 1007.5 |
| 20260904150054 | 82 | 130 | 0.0 | 0.0 | 0.00 | 0.00 | 0.00 | 16 | 1007.7 |
| 20260904144550 | 80 | 133 | 1.7 | 4.3 | 0.00 | 0.00 | 0.00 | 17 | 1007.6 |
| 20260904143047 | 79 | 149 | 0.9 | 4.3 | 0.00 | 0.00 | 0.00 | 17 | 1007.4 |
| 20260904141604 | 79 | 183 | 0.0 | 1.7 | 0.00 | 0.00 | 0.00 | 17 | 1007.2 |
| 20260904140040 | 79 | 294 | 0.0 | 3.5 | 0.00 | 0.00 | 0.00 | 14 | 1006.9 |
| 20260904134536 | 79 | 331 | 0.0 | 0.9 | 0.00 | 0.00 | 0.00 | 15 | 1006.8 |
| 20260904133032 | 79 | 307 | 0.0 | 1.7 | 0.00 | 0.00 | 0.00 | 16 | 1006.6 |
| 20260904131530 | 79 | 266 | 3.5 | 7.8 | 0.00 | 0.00 | 0.00 | 16 | 1006.4 |
| 20260904130028 | 80 | 302 | 5.2 | 11.3 | 0.00 | 0.00 | 0.00 | 16 | 1006.2 |
| 20260904124525 | 81 | 338 | 6.1 | 12.2 | 0.00 | 0.00 | 0.00 | 16 | 1006.0 |
| 20260904123023 | 82 | 269 | 8.7 | 16.5 | 0.00 | 0.00 | 0.00 | 15 | 1005.7 |
| 20260904121522 | 82 | 291 | 10.4 | 17.4 | 0.00 | 0.00 | 0.00 | 16 | 1005.4 |
| 20260904120019 | 81 | 275 | 9.6 | 17.4 | 0.00 | 0.00 | 0.00 | 17 | 1005.6 |
| 20260904114533 | 81 | 290 | 8.7 | 16.5 | 0.00 | 0.00 | 0.00 | 18 | 1005.6 |
| 20260904113012 | 82 | 293 | 10.4 | 16.5 | 0.00 | 0.00 | 0.00 | 19 | 1005.5 |
| 20260904111509 | 82 | 292 | 9.6 | 16.5 | 0.00 | 0.00 | 0.00 | 20 | 1005.5 |
| 20260904110020 | 82 | 273 | 10.4 | 16.5 | 0.00 | 0.00 | 0.00 | 21 | 1005.3 |
| 20260904104506 | 82 | 311 | 9.6 | 17.4 | 0.00 | 0.00 | 0.00 | 21 | 1005.1 |
| 20260904103007 | 83 | 282 | 7.0 | 16.5 | 0.00 | 0.00 | 0.00 | 21 | 1005.3 |
| 20260904101512 | 83 | 258 | 8.7 | 14.8 | 0.00 | 0.00 | 0.00 | 20 | 1005.1 |
| 20260904100003 | 83 | 292 | 7.8 | 16.5 | 0.00 | 0.00 | 0.00 | 20 | 1005.0 |
| 20260904094501 | 84 | 256 | 9.6 | 17.4 | 0.00 | 0.00 | 0.00 | 19 | 1005.0 |
| 20260904093100 | 84 | 288 | 8.7 | 19.1 | 0.00 | 0.00 | 0.00 | 18 | 1005.1 |
| 20260904091558 | 84 | 310 | 11.3 | 19.1 | 0.00 | 0.00 | 0.00 | 18 | 1004.8 |
| 20260904090057 | 84 | 314 | 12.2 | 20.9 | 0.00 | 0.00 | 0.00 | 18 | 1004.9 |
| 20260904084558 | 84 | 244 | 8.7 | 13.9 | 0.00 | 0.00 | 0.00 | 19 | 1005.0 |
| 20260904083057 | 84 | 323 | 7.8 | 14.8 | 0.00 | 0.00 | 0.00 | 18 | 1004.9 |
| 20260904081551 | 84 | 298 | 10.4 | 14.8 | 0.00 | 0.00 | 0.00 | 17 | 1004.9 |
| 20260904080049 | 85 | 265 | 9.6 | 15.6 | 0.00 | 0.00 | 0.00 | 16 | 1005.1 |
| 20260904074557 | 84 | 303 | 8.7 | 14.8 | 0.00 | 0.00 | 0.00 | 16 | 1005.1 |
| 20260904073048 | 84 | 329 | 7.0 | 13.9 | 0.00 | 0.00 | 0.00 | 17 | 1005.4 |
| 20260904071546 | 84 | 294 | 8.7 | 16.5 | 0.00 | 0.00 | 0.00 | 19 | 1005.3 |
| 20260904070043 | 84 | 304 | 11.3 | 15.6 | 0.00 | 0.00 | 0.00 | 19 | 1005.1 |
| 20260904064542 | 85 | 323 | 10.4 | 17.4 | 0.00 | 0.00 | 0.00 | 18 | 1005.2 |
| 20260904063054 | 85 | 309 | 10.4 | 16.5 | 0.00 | 0.00 | 0.00 | 18 | 1005.2 |
| 20260904061542 | 85 | 284 | 11.3 | 17.4 | 0.00 | 0.00 | 0.00 | 19 | 1005.2 |
| 20260904060105 | 85 | 331 | 11.3 | 18.2 | 0.00 | 0.00 | 0.00 | 20 | 1005.1 |
| 20260904054541 | 85 | 298 | 13.0 | 19.1 | 0.00 | 0.00 | 0.00 | 21 | 1005.2 |
| 20260904053042 | 85 | 299 | 13.0 | 19.1 | 0.00 | 0.00 | 0.00 | 21 | 1005.1 |
| 20260904051545 | 85 | 288 | 13.9 | 21.7 | 0.00 | 0.00 | 0.00 | 23 | 1005.2 |
| 20260904050043 | 85 | 300 | 15.6 | 20.9 | 0.00 | 0.00 | 0.00 | 23 | 1005.1 |
| 20260904044549 | 86 | 303 | 14.8 | 20.0 | 0.00 | 0.00 | 0.00 | 21 | 1005.2 |
| 20260904043043 | 86 | 299 | 11.3 | 18.2 | 0.00 | 0.00 | 0.00 | 23 | 1005.3 |
| 20260904041540 | 87 | 298 | 11.3 | 18.2 | 0.00 | 0.00 | 0.00 | 22 | 1005.1 |
| 20260904040041 | 87 | 293 | 10.4 | 16.5 | 0.00 | 0.00 | 0.00 | 22 | 1005.1 |
| 20260904034555 | 87 | 270 | 8.7 | 17.4 | 0.00 | 0.00 | 0.00 | 25 | 1005.0 |
| 20260904033040 | 88 | 263 | 7.0 | 13.0 | 0.00 | 0.00 | 0.00 | 25 | 1005.0 |
| 20260904031538 | 88 | 300 | 7.8 | 13.0 | 0.00 | 0.00 | 0.00 | 25 | 1004.6 |
| 20260904030040 | 89 | 285 | 7.8 | 13.0 | 0.00 | 0.00 | 0.00 | 25 | 1004.3 |
| 20260904024538 | 90 | 273 | 7.8 | 13.9 | 0.00 | 0.00 | 0.00 | 24 | 1004.0 |
| 20260904023037 | 90 | 267 | 7.0 | 13.9 | 0.00 | 0.00 | 0.00 | 25 | 1004.1 |
| 20260904021537 | 91 | 290 | 8.7 | 13.9 | 0.00 | 0.00 | 0.00 | 25 | 1004.0 |
| 20260904020039 | 92 | 303 | 7.0 | 14.8 | 0.00 | 0.00 | 0.00 | 21 | 1003.7 |
| 20260904014537 | 93 | 280 | 8.7 | 15.6 | 0.00 | 0.00 | 0.00 | 21 | 1003.7 |
| 20260904013035 | 94 | 312 | 11.3 | 17.4 | 0.00 | 0.00 | 0.00 | 20 | 1003.7 |
| 20260904011538 | 95 | 279 | 8.7 | 16.5 | 0.00 | 0.00 | 0.00 | 20 | 1003.8 |
| 20260904010044 | 96 | 296 | 11.3 | 20.0 | 0.00 | 0.00 | 0.00 | 19 | 1003.9 |
| 20260904004536 | 97 | 267 | 12.2 | 19.1 | 0.00 | 0.00 | 0.00 | 19 | 1003.9 |
| 20260904003033 | 98 | 288 | 12.2 | 19.1 | 0.00 | 0.00 | 0.00 | 17 | 1003.8 |
| 20260904001530 | 98 | 262 | 10.4 | 16.5 | 0.00 | 0.00 | 0.00 | 18 | 1003.9 |
| 20260904000029 | 99 | 295 | 10.4 | 16.5 | 0.00 | 0.00 | 0.00 | 18 | 1004.0 |
| 20260903234534 | 99 | 302 | 9.6 | 17.4 | 0.00 | 0.00 | 0.00 | 18 | 1004.1 |
| 20260903233025 | 99 | 292 | 11.3 | 20.9 | 0.00 | 0.00 | 0.00 | 18 | 1004.2 |
| 20260903231525 | 100 | 273 | 10.4 | 18.2 | 0.00 | 0.00 | 0.00 | 15 | 1004.4 |
| 20260903230025 | 101 | 261 | 7.8 | 23.5 | 0.00 | 0.00 | 0.00 | 13 | 1004.5 |
| 20260903224526 | 101 | 294 | 11.3 | 16.5 | 0.00 | 0.00 | 0.00 | 12 | 1004.5 |
| 20260903223037 | 101 | 311 | 8.7 | 17.4 | 0.00 | 0.00 | 0.00 | 12 | 1004.7 |
| 20260903221529 | 102 | 286 | 10.4 | 18.2 | 0.00 | 0.00 | 0.00 | 11 | 1004.9 |
| 20260903220037 | 102 | 267 | 10.4 | 16.5 | 0.00 | 0.00 | 0.00 | 10 | 1005.0 |
| 20260903214525 | 102 | 300 | 9.6 | 19.1 | 0.00 | 0.00 | 0.00 | 10 | 1005.1 |
| 20260903213016 | 102 | 281 | 9.6 | 18.2 | 0.00 | 0.00 | 0.00 | 10 | 1005.2 |
| 20260903211526 | 101 | 288 | 11.3 | 20.0 | 0.00 | 0.00 | 0.00 | 10 | 1005.3 |
| 20260903210010 | 101 | 292 | 9.6 | 17.4 | 0.00 | 0.00 | 0.00 | 9 | 1005.5 |
| 20260903204508 | 100 | 293 | 9.6 | 16.5 | 0.00 | 0.00 | 0.00 | 9 | 1005.6 |
| 20260903203008 | 101 | 302 | 9.6 | 16.5 | 0.00 | 0.00 | 0.00 | 9 | 1005.8 |
| 20260903201506 | 100 | 281 | 9.6 | 15.6 | 0.00 | 0.00 | 0.00 | 9 | 1006.2 |
| 20260903200002 | 100 | 303 | 8.7 | 15.6 | 0.00 | 0.00 | 0.00 | 8 | 1006.3 |
| 20260903194600 | 100 | 301 | 10.4 | 16.5 | 0.00 | 0.00 | 0.00 | 8 | 1006.5 |
| 20260903193056 | 99 | 252 | 6.1 | 9.6 | 0.00 | 0.00 | 0.00 | 8 | 1006.8 |
| 20260903191553 | 99 | 92 | 3.5 | 7.8 | 0.00 | 0.00 | 0.00 | 6 | 1007.1 |
| 20260903190050 | 98 | 132 | 5.2 | 7.8 | 0.00 | 0.00 | 0.00 | 7 | 1007.4 |
| 20260903184548 | 97 | 186 | 4.3 | 9.6 | 0.00 | 0.00 | 0.00 | 7 | 1007.8 |
| 20260903183044 | 96 | 57 | 3.5 | 9.6 | 0.00 | 0.00 | 0.00 | 7 | 1008.1 |
| 20260903181540 | 96 | 71 | 5.2 | 10.4 | 0.00 | 0.00 | 0.00 | 7 | 1008.3 |
| 20260903180037 | 95 | 209 | 4.3 | 10.4 | 0.00 | 0.00 | 0.00 | 7 | 1008.4 |
| 20260903174552 | 94 | 175 | 2.6 | 7.8 | 0.00 | 0.00 | 0.00 | 8 | 1008.5 |
| 20260903173029 | 93 | 162 | 5.2 | 8.7 | 0.00 | 0.00 | 0.00 | 8 | 1008.4 |
| 20260903171529 | 92 | 147 | 6.1 | 9.6 | 0.00 | 0.00 | 0.00 | 8 | 1008.4 |
| 20260903170022 | 91 | 133 | 4.3 | 8.7 | 0.00 | 0.00 | 0.00 | 8 | 1008.5 |
| 20260903164516 | 90 | 105 | 5.2 | 13.0 | 0.00 | 0.00 | 0.00 | 9 | 1008.5 |